Time,TemperatureF,DewpointF,PressureIn,WindDirection,WindDirectionDegrees,WindSpeedMPH,WindSpeedGustMPH,Humidity,HourlyPrecipIn,Conditions,Clouds,dailyrainin,SolarRadiationWatts/m^2,SoftwareType,DateUTC
2013-05-07 00:02:00,43.0,24.0,-100.00,SSE,150,1.0,4.0,46,0.00,,,0.00,1.000000,,2013-05-07 06:02:00,
2013-05-07 00:12:00,43.0,24.0,-100.00,SSE,150,1.0,4.0,46,0.00,,,0.00,1.000000,,2013-05-07 06:12:00,
2013-05-07 00:22:00,43.0,24.0,-100.00,SSE,150,1.0,4.0,46,0.00,,,0.00,1.000000,,2013-05-07 06:22:00,
2013-05-07 00:42:00,42.0,23.0,-100.00,ESE,121,1.0,4.0,47,0.00,,,0.00,1.000000,,2013-05-07 06:42:00,
2013-05-07 00:52:00,42.0,23.0,-100.00,ESE,121,1.0,4.0,47,0.00,,,0.00,1.000000,,2013-05-07 06:52:00,
2013-05-07 01:02:00,42.0,23.0,-100.00,ESE,121,1.0,4.0,47,0.00,,,0.00,1.000000,,2013-05-07 07:02:00,
2013-05-07 01:11:00,42.0,23.0,-100.00,ESE,121,1.0,4.0,47,0.00,,,0.00,1.000000,,2013-05-07 07:11:00,
2013-05-07 01:22:00,42.0,23.0,-100.00,ESE,121,1.0,4.0,47,0.00,,,0.00,1.000000,,2013-05-07 07:22:00,
2013-05-07 01:42:00,42.0,23.0,-100.00,ENE,76,1.0,5.0,46,0.00,,,0.00,1.000000,,2013-05-07 07:42:00,
2013-05-07 01:52:00,42.0,23.0,-100.00,ENE,76,1.0,5.0,46,0.00,,,0.00,1.000000,,2013-05-07 07:52:00,
2013-05-07 02:02:00,42.0,23.0,-100.00,ENE,76,1.0,5.0,46,0.00,,,0.00,1.000000,,2013-05-07 08:02:00,
2013-05-07 02:11:00,42.0,23.0,-100.00,ENE,76,1.0,5.0,46,0.00,,,0.00,1.000000,,2013-05-07 08:11:00,
2013-05-07 02:21:00,42.0,23.0,-100.00,ENE,76,1.0,5.0,46,0.00,,,0.00,1.000000,,2013-05-07 08:21:00,
2013-05-07 02:42:00,40.0,22.0,-100.00,NW,318,0.0,4.0,48,0.00,,,0.00,1.000000,,2013-05-07 08:42:00,
2013-05-07 02:52:00,40.0,22.0,-100.00,NW,318,0.0,4.0,48,0.00,,,0.00,1.000000,,2013-05-07 08:52:00,
2013-05-07 03:01:00,40.0,22.0,-100.00,NW,318,0.0,4.0,48,0.00,,,0.00,1.000000,,2013-05-07 09:01:00,
2013-05-07 03:11:00,40.0,22.0,-100.00,NW,318,0.0,4.0,48,0.00,,,0.00,1.000000,,2013-05-07 09:11:00,
2013-05-07 03:22:00,40.0,22.0,-100.00,NW,318,0.0,4.0,48,0.00,,,0.00,1.000000,,2013-05-07 09:22:00,
2013-05-07 03:43:00,42.0,24.0,-100.00,NNW,343,1.0,3.0,49,0.00,,,0.00,1.000000,,2013-05-07 09:43:00,
2013-05-07 03:52:00,42.0,24.0,-100.00,NNW,343,1.0,3.0,49,0.00,,,0.00,1.000000,,2013-05-07 09:52:00,
2013-05-07 04:03:00,42.0,24.0,-100.00,NNW,343,1.0,3.0,49,0.00,,,0.00,1.000000,,2013-05-07 10:03:00,
2013-05-07 04:12:00,42.0,24.0,-100.00,NNW,343,1.0,3.0,49,0.00,,,0.00,1.000000,,2013-05-07 10:12:00,
2013-05-07 04:23:00,42.0,24.0,-100.00,NNW,343,1.0,3.0,49,0.00,,,0.00,1.000000,,2013-05-07 10:23:00,
2013-05-07 04:42:00,44.0,28.0,-100.00,NNW,341,2.0,3.0,53,0.00,,,0.00,1.000000,,2013-05-07 10:42:00,
2013-05-07 04:52:00,44.0,28.0,-100.00,NNW,341,2.0,3.0,53,0.00,,,0.00,1.000000,,2013-05-07 10:52:00,
2013-05-07 05:02:00,44.0,28.0,-100.00,NNW,341,2.0,3.0,53,0.00,,,0.00,1.000000,,2013-05-07 11:02:00,
2013-05-07 05:12:00,44.0,28.0,-100.00,NNW,341,2.0,3.0,53,0.00,,,0.00,1.000000,,2013-05-07 11:12:00,
2013-05-07 05:22:00,44.0,28.0,-100.00,NNW,341,2.0,3.0,53,0.00,,,0.00,1.000000,,2013-05-07 11:22:00,
2013-05-07 05:42:00,42.0,29.0,-100.00,NNW,327,3.0,4.0,60,0.00,,,0.00,1.000000,,2013-05-07 11:42:00,
2013-05-07 05:52:00,42.0,29.0,-100.00,NNW,327,3.0,4.0,60,0.00,,,0.00,1.000000,,2013-05-07 11:52:00,
2013-05-07 06:02:00,42.0,29.0,-100.00,NNW,327,3.0,4.0,60,0.00,,,0.00,1.000000,,2013-05-07 12:02:00,
2013-05-07 06:11:00,42.0,29.0,-100.00,NNW,327,3.0,4.0,60,0.00,,,0.00,1.000000,,2013-05-07 12:11:00,
2013-05-07 06:21:00,42.0,29.0,-100.00,NNW,327,3.0,4.0,60,0.00,,,0.00,1.000000,,2013-05-07 12:21:00,
2013-05-07 06:42:00,42.0,31.0,-100.00,NW,309,3.0,5.0,66,0.00,,,0.00,8.000000,,2013-05-07 12:42:00,
2013-05-07 06:52:00,42.0,31.0,-100.00,NW,309,3.0,5.0,66,0.00,,,0.00,8.000000,,2013-05-07 12:52:00,
2013-05-07 07:02:00,42.0,31.0,-100.00,NW,309,3.0,5.0,66,0.00,,,0.00,8.000000,,2013-05-07 13:02:00,
2013-05-07 07:11:00,42.0,31.0,-100.00,NW,309,3.0,5.0,66,0.00,,,0.00,8.000000,,2013-05-07 13:11:00,
2013-05-07 07:21:00,42.0,31.0,-100.00,NW,309,3.0,5.0,66,0.00,,,0.00,8.000000,,2013-05-07 13:21:00,
2013-05-07 07:42:00,47.0,33.0,-100.00,NNW,337,3.0,4.0,57,0.00,,,0.00,34.000000,,2013-05-07 13:42:00,
2013-05-07 07:52:00,47.0,33.0,-100.00,NNW,337,3.0,4.0,57,0.00,,,0.00,34.000000,,2013-05-07 13:52:00,
2013-05-07 08:02:00,47.0,33.0,-100.00,NNW,337,3.0,4.0,57,0.00,,,0.00,34.000000,,2013-05-07 14:02:00,
2013-05-07 08:11:00,47.0,33.0,-100.00,NNW,337,3.0,4.0,57,0.00,,,0.00,34.000000,,2013-05-07 14:11:00,
2013-05-07 08:21:00,47.0,33.0,-100.00,NNW,337,3.0,4.0,57,0.00,,,0.00,34.000000,,2013-05-07 14:21:00,
2013-05-07 08:42:00,59.0,33.0,-100.00,West,263,1.0,3.0,38,0.00,,,0.00,317.000000,,2013-05-07 14:42:00,
2013-05-07 08:52:00,59.0,33.0,-100.00,West,263,1.0,3.0,38,0.00,,,0.00,317.000000,,2013-05-07 14:52:00,
2013-05-07 09:01:00,59.0,33.0,-100.00,West,263,1.0,3.0,38,0.00,,,0.00,317.000000,,2013-05-07 15:01:00,
2013-05-07 09:12:00,59.0,33.0,-100.00,West,263,1.0,3.0,38,0.00,,,0.00,317.000000,,2013-05-07 15:12:00,
2013-05-07 09:21:00,59.0,33.0,-100.00,West,263,1.0,3.0,38,0.00,,,0.00,317.000000,,2013-05-07 15:21:00,
2013-05-07 09:42:00,61.0,28.0,-100.00,SSW,201,5.0,9.0,28,0.00,,,0.00,558.000000,,2013-05-07 15:42:00,
2013-05-07 09:53:00,61.0,28.0,-100.00,SSW,201,5.0,9.0,28,0.00,,,0.00,558.000000,,2013-05-07 15:53:00,
2013-05-07 10:03:00,61.0,28.0,-100.00,SSW,201,5.0,9.0,28,0.00,,,0.00,558.000000,,2013-05-07 16:03:00,
2013-05-07 10:12:00,61.0,28.0,-100.00,SSW,201,5.0,9.0,28,0.00,,,0.00,558.000000,,2013-05-07 16:12:00,
2013-05-07 10:22:00,61.0,28.0,-100.00,SSW,201,5.0,9.0,28,0.00,,,0.00,558.000000,,2013-05-07 16:22:00,
2013-05-07 10:52:00,60.0,28.0,-100.00,South,169,4.0,7.0,29,0.00,,,0.00,603.000000,,2013-05-07 16:52:00,
2013-05-07 11:01:00,60.0,28.0,-100.00,South,169,4.0,7.0,29,0.00,,,0.00,603.000000,,2013-05-07 17:01:00,
2013-05-07 11:12:00,60.0,28.0,-100.00,South,169,4.0,7.0,29,0.00,,,0.00,603.000000,,2013-05-07 17:12:00,
2013-05-07 11:21:00,60.0,28.0,-100.00,South,169,4.0,7.0,29,0.00,,,0.00,603.000000,,2013-05-07 17:21:00,
2013-05-07 12:42:00,61.0,27.0,-100.00,SSW,213,5.0,11.0,27,-99.99,,,0.00,603.000000,,2013-05-07 18:42:00,
2013-05-07 12:52:00,61.0,27.0,-100.00,SSW,213,5.0,11.0,27,-99.99,,,0.00,603.000000,,2013-05-07 18:52:00,
2013-05-07 13:02:00,61.0,27.0,-100.00,SSW,213,5.0,11.0,27,-99.99,,,0.00,603.000000,,2013-05-07 19:02:00,
2013-05-07 13:11:00,61.0,27.0,-100.00,SSW,213,5.0,11.0,27,-99.99,,,0.00,603.000000,,2013-05-07 19:11:00,
2013-05-07 13:21:00,61.0,27.0,-100.00,SSW,213,5.0,11.0,27,-99.99,,,0.00,603.000000,,2013-05-07 19:21:00,
2013-05-07 13:42:00,55.0,32.0,-100.00,East,90,4.0,9.0,41,0.00,,,0.00,141.000000,,2013-05-07 19:42:00,
2013-05-07 13:52:00,55.0,32.0,-100.00,East,90,4.0,9.0,41,0.00,,,0.00,141.000000,,2013-05-07 19:52:00,
2013-05-07 14:02:00,55.0,32.0,-100.00,East,90,4.0,9.0,41,0.00,,,0.00,141.000000,,2013-05-07 20:02:00,
2013-05-07 14:12:00,55.0,32.0,-100.00,East,90,4.0,9.0,41,0.00,,,0.00,141.000000,,2013-05-07 20:12:00,
2013-05-07 14:21:00,55.0,32.0,-100.00,East,90,4.0,9.0,41,0.00,,,0.00,141.000000,,2013-05-07 20:21:00,
2013-05-07 14:42:00,55.0,35.0,-100.00,NE,52,4.0,10.0,47,0.00,,,0.00,232.000000,,2013-05-07 20:42:00,
2013-05-07 14:52:00,55.0,35.0,-100.00,NE,52,4.0,10.0,47,0.00,,,0.00,232.000000,,2013-05-07 20:52:00,
2013-05-07 15:01:00,55.0,35.0,-100.00,NE,52,4.0,10.0,47,0.00,,,0.00,232.000000,,2013-05-07 21:01:00,
2013-05-07 15:11:00,55.0,35.0,-100.00,NE,52,4.0,10.0,47,0.00,,,0.00,232.000000,,2013-05-07 21:11:00,
2013-05-07 15:21:00,55.0,35.0,-100.00,NE,52,4.0,10.0,47,0.00,,,0.00,232.000000,,2013-05-07 21:21:00,
2013-05-07 15:43:00,63.0,36.0,-100.00,ESE,109,4.0,9.0,37,0.00,,,0.00,556.000000,,2013-05-07 21:43:00,
2013-05-07 15:53:00,63.0,36.0,-100.00,ESE,109,4.0,9.0,37,0.00,,,0.00,556.000000,,2013-05-07 21:53:00,
2013-05-07 16:02:00,63.0,36.0,-100.00,ESE,109,4.0,9.0,37,0.00,,,0.00,556.000000,,2013-05-07 22:02:00,
2013-05-07 16:13:00,63.0,36.0,-100.00,ESE,109,4.0,9.0,37,0.00,,,0.00,556.000000,,2013-05-07 22:13:00,
2013-05-07 16:22:00,63.0,36.0,-100.00,ESE,109,4.0,9.0,37,0.00,,,0.00,556.000000,,2013-05-07 22:22:00,
2013-05-07 16:42:00,65.0,34.0,-100.00,South,176,4.0,10.0,32,0.00,,,0.00,821.000000,,2013-05-07 22:42:00,
2013-05-07 16:52:00,65.0,34.0,-100.00,South,176,4.0,10.0,32,0.00,,,0.00,821.000000,,2013-05-07 22:52:00,
2013-05-07 17:02:00,65.0,34.0,-100.00,South,176,4.0,10.0,32,0.00,,,0.00,821.000000,,2013-05-07 23:02:00,
2013-05-07 17:12:00,65.0,34.0,-100.00,South,176,4.0,10.0,32,0.00,,,0.00,821.000000,,2013-05-07 23:12:00,
2013-05-07 17:21:00,65.0,34.0,-100.00,South,176,4.0,10.0,32,0.00,,,0.00,821.000000,,2013-05-07 23:21:00,
2013-05-07 17:42:00,64.0,31.0,-100.00,WSW,239,3.0,9.0,29,0.00,,,0.00,450.000000,,2013-05-07 23:42:00,
2013-05-07 17:52:00,64.0,31.0,-100.00,WSW,239,3.0,9.0,29,0.00,,,0.00,450.000000,,2013-05-07 23:52:00,
2013-05-07 18:02:00,64.0,31.0,-100.00,WSW,239,3.0,9.0,29,0.00,,,0.00,450.000000,,2013-05-08 00:02:00,
2013-05-07 18:11:00,64.0,31.0,-100.00,WSW,239,3.0,9.0,29,0.00,,,0.00,450.000000,,2013-05-08 00:11:00,
2013-05-07 18:21:00,64.0,31.0,-100.00,WSW,239,3.0,9.0,29,0.00,,,0.00,450.000000,,2013-05-08 00:21:00,
2013-05-07 18:42:00,63.0,28.0,-100.00,WSW,242,3.0,10.0,26,0.00,,,0.00,338.000000,,2013-05-08 00:42:00,
2013-05-07 18:52:00,63.0,28.0,-100.00,WSW,242,3.0,10.0,26,0.00,,,0.00,338.000000,,2013-05-08 00:52:00,
2013-05-07 19:02:00,63.0,28.0,-100.00,WSW,242,3.0,10.0,26,0.00,,,0.00,338.000000,,2013-05-08 01:02:00,
2013-05-07 19:11:00,63.0,28.0,-100.00,WSW,242,3.0,10.0,26,0.00,,,0.00,338.000000,,2013-05-08 01:11:00,
2013-05-07 19:21:00,63.0,28.0,-100.00,WSW,242,3.0,10.0,26,0.00,,,0.00,338.000000,,2013-05-08 01:21:00,
2013-05-07 19:42:00,58.0,33.0,-100.00,NE,54,1.0,9.0,38,0.00,,,0.00,62.000000,,2013-05-08 01:42:00,
2013-05-07 19:52:00,58.0,33.0,-100.00,NE,54,1.0,9.0,38,0.00,,,0.00,62.000000,,2013-05-08 01:52:00,
2013-05-07 20:02:00,58.0,33.0,-100.00,NE,54,1.0,9.0,38,0.00,,,0.00,62.000000,,2013-05-08 02:02:00,
2013-05-07 20:12:00,58.0,33.0,-100.00,NE,54,1.0,9.0,38,0.00,,,0.00,62.000000,,2013-05-08 02:12:00,
2013-05-07 20:22:00,58.0,33.0,-100.00,NE,54,1.0,9.0,38,0.00,,,0.00,62.000000,,2013-05-08 02:22:00,
2013-05-07 20:42:00,52.0,38.0,-100.00,ESE,119,3.0,10.0,58,0.00,,,0.00,8.000000,,2013-05-08 02:42:00,
2013-05-07 20:52:00,52.0,38.0,-100.00,ESE,119,3.0,10.0,58,0.00,,,0.00,8.000000,,2013-05-08 02:52:00,
2013-05-07 21:02:00,52.0,38.0,-100.00,ESE,119,3.0,10.0,58,0.00,,,0.00,8.000000,,2013-05-08 03:02:00,
2013-05-07 21:11:00,52.0,38.0,-100.00,ESE,119,3.0,10.0,58,0.00,,,0.00,8.000000,,2013-05-08 03:11:00,
2013-05-07 21:21:00,52.0,38.0,-100.00,ESE,119,3.0,10.0,58,0.00,,,0.00,8.000000,,2013-05-08 03:21:00,
2013-05-07 21:43:00,47.0,39.0,-100.00,ENE,66,1.0,5.0,73,0.00,,,0.00,1.000000,,2013-05-08 03:43:00,
2013-05-07 21:52:00,47.0,39.0,-100.00,ENE,66,1.0,5.0,73,0.00,,,0.00,1.000000,,2013-05-08 03:52:00,
2013-05-07 22:02:00,47.0,39.0,-100.00,ENE,66,1.0,5.0,73,0.00,,,0.00,1.000000,,2013-05-08 04:02:00,
2013-05-07 22:13:00,47.0,39.0,-100.00,ENE,66,1.0,5.0,73,0.00,,,0.00,1.000000,,2013-05-08 04:13:00,
2013-05-07 22:23:00,47.0,39.0,-100.00,ENE,66,1.0,5.0,73,0.00,,,0.00,1.000000,,2013-05-08 04:23:00,
2013-05-07 22:43:00,46.0,40.0,-100.00,NE,42,0.0,6.0,80,0.00,,,0.00,1.000000,,2013-05-08 04:43:00,
2013-05-07 22:53:00,46.0,40.0,-100.00,NE,42,0.0,6.0,80,0.00,,,0.00,1.000000,,2013-05-08 04:53:00,
2013-05-07 23:02:00,46.0,40.0,-100.00,NE,42,0.0,6.0,80,0.00,,,0.00,1.000000,,2013-05-08 05:02:00,
2013-05-07 23:12:00,46.0,40.0,-100.00,NE,42,0.0,6.0,80,0.00,,,0.00,1.000000,,2013-05-08 05:12:00,
2013-05-07 23:22:00,46.0,40.0,-100.00,NE,42,0.0,6.0,80,0.00,,,0.00,1.000000,,2013-05-08 05:22:00,
2013-05-07 23:42:00,46.0,39.0,-100.00,NNW,347,4.0,6.0,77,0.00,,,0.00,1.000000,,2013-05-08 05:42:00,
2013-05-07 23:52:00,46.0,39.0,-100.00,NNW,347,4.0,6.0,77,0.00,,,0.00,1.000000,,2013-05-08 05:52:00,